This is the latest recevied weather packets stored in our database for station/object KD5HIA. If no packets are shown the sender has not sent any weather packets the latest 10 day(s).
| Time | Temp. | Humidity | Pressure | Rain* | Wind** | Luminosity | Snow |
|---|---|---|---|---|---|---|---|
| 1777643718 | 13.33° C | 94% | 1014.2 hPa | 0.25 mm | - | 29 W/m² | - |
| 1777643118 | 13.33° C | 94% | 1014.4 hPa | 0 mm | - | 16 W/m² | - |
| 1777642518 | 13.33° C | 94% | 1014.4 hPa | 0 mm | - | 14 W/m² | - |
| 1777641922 | 13.33° C | 94% | 1014.5 hPa | 0 mm | - | 10 W/m² | - |
| 1777641321 | 13.33° C | 94% | 1014.6 hPa | 0 mm | - | 12 W/m² | - |
| 1777640721 | 13.33° C | 94% | 1014.4 hPa | 0 mm | - | 15 W/m² | - |
| 1777640118 | 13.33° C | 94% | 1014.4 hPa | 0 mm | - | 9 W/m² | - |
| 1777639518 | 13.33° C | 95% | 1014.2 hPa | 0 mm | - | 12 W/m² | - |
| 1777638918 | 13.33° C | 94% | 1013.8 hPa | 0 mm | - | 11 W/m² | - |
| 1777638318 | 13.33° C | 95% | 1013.7 hPa | 0.25 mm | - | 0 W/m² | - |
| 1777637718 | 13.33° C | 95% | 1013.7 hPa | 0.76 mm | - | 0 W/m² | - |
| 1777637118 | 13.33° C | 95% | 1013.7 hPa | 1.27 mm | - | 0 W/m² | - |
| 1777636518 | 13.33° C | 95% | 1013.5 hPa | 1.27 mm | - | 0 W/m² | - |
| 1777635918 | 13.33° C | 95% | 1013.7 hPa | 1.52 mm | - | 0 W/m² | - |
| 1777635318 | 13.33° C | 95% | 1013.6 hPa | 1.78 mm | - | 0 W/m² | - |
| 1777634718 | 13.33° C | 95% | 1013.2 hPa | 1.78 mm | - | 0 W/m² | - |
| 1777634118 | 13.89° C | 95% | 1013.7 hPa | 1.27 mm | - | 0 W/m² | - |
| 1777633518 | 13.89° C | 95% | 1014.6 hPa | 1.02 mm | - | 0 W/m² | - |
| 1777632918 | 13.89° C | 95% | 1014.4 hPa | 1.02 mm | - | 0 W/m² | - |
| 1777632318 | 13.89° C | 94% | 1014.1 hPa | 1.02 mm | - | 0 W/m² | - |
| 1777631718 | 13.89° C | 94% | 1014.2 hPa | 0.51 mm | - | 0 W/m² | - |
| 1777631118 | 13.89° C | 94% | 1014.1 hPa | 0.51 mm | - | 0 W/m² | - |
| 1777630518 | 13.89° C | 95% | 1013.9 hPa | 0.51 mm | - | 0 W/m² | - |
| 1777629918 | 14.44° C | 94% | 1014.1 hPa | 0.25 mm | - | 0 W/m² | - |
| 1777629318 | 14.44° C | 94% | 1014.5 hPa | 0.25 mm | - | 0 W/m² | - |
* Rain latest hour (hover to see other rain measurements)
** Current wind speed in m/s (hover to see current wind gust speed)